NT9G Weather Reports


time (UTC)temp
C
wind
direction
speed
KPH
gust
KPH
rain 1hr
cm
rain 24hr
cm
rain mn
cm
humidity
%
barometer
mb
20260504081846 9 0 0.0 0.0 0.00 0.00 0.00 71 1006.7
20260504081346 9 0 0.0 0.0 0.00 0.00 0.00 71 1006.6
20260504080846 9 0 0.0 0.0 0.00 0.00 0.00 69 1006.7
20260504080345 9 0 0.0 0.0 0.00 0.00 0.00 67 1006.7
20260504070342 9 0 0.0 0.0 0.00 0.00 0.00 63 1006.9
20260504050334 11 0 0.0 0.0 0.00 0.00 0.00 65 1008.3
20260504045834 11 0 0.0 0.0 0.00 0.00 0.00 66 1008.2
20260504045334 11 0 0.0 0.0 0.00 0.00 0.00 66 1008.2
20260504044834 11 0 0.0 0.0 0.00 0.00 0.00 64 1008.2
20260504044333 11 0 0.0 0.0 0.00 0.00 0.00 65 1008.2
20260504043833 11 0 0.0 0.0 0.00 0.00 0.00 65 1008.2
20260504043333 11 0 0.0 0.0 0.00 0.00 0.00 66 1008.2
20260504042833 11 0 0.0 0.0 0.00 0.00 0.00 64 1008.3
20260504042332 11 0 0.0 0.0 0.00 0.00 0.00 65 1008.4
20260504041832 11 0 0.0 0.0 0.00 0.00 0.00 64 1008.3
20260504041332 12 0 0.0 0.0 0.00 0.00 0.00 65 1008.4
20260504040831 12 0 0.0 0.0 0.00 0.00 0.00 65 1008.4
20260504040331 12 0 0.0 0.0 0.00 0.00 0.00 65 1008.4
20260504035828 12 0 0.0 0.0 0.00 0.00 0.00 64 1008.4
20260504035328 12 0 0.0 0.0 0.00 0.00 0.00 64 1008.4
20260504034327 12 0 0.0 0.0 0.00 0.00 0.00 63 1008.4
20260504033327 12 0 0.0 0.0 0.00 0.00 0.00 62 1008.5
20260504032827 12 0 0.0 0.0 0.00 0.00 0.00 62 1008.5
20260504032326 12 0 0.0 0.0 0.00 0.00 0.00 61 1008.5
20260504031826 13 0 0.0 0.0 0.00 0.00 0.00 61 1008.5
20260504031326 13 0 0.0 0.0 0.00 0.00 0.00 61 1008.5
20260504030825 13 0 0.0 0.0 0.00 0.00 0.00 60 1008.5
20260504030325 13 0 0.0 0.0 0.00 0.00 0.00 59 1008.5
20260504025825 13 0 0.0 0.0 0.00 0.00 0.00 59 1008.5
20260504025325 13 0 0.0 0.0 0.00 0.00 0.00 58 1008.4
20260504024824 13 0 0.0 0.0 0.00 0.00 0.00 57 1008.4
20260504023824 14 0 0.0 0.0 0.00 0.00 0.00 57 1008.4
20260504023323 14 0 0.0 0.0 0.00 0.00 0.00 56 1008.3
20260504022823 14 0 0.0 0.0 0.00 0.00 0.00 55 1008.4
20260504022323 15 0 0.0 0.0 0.00 0.00 0.00 54 1008.3
20260504021823 15 0 0.0 0.0 0.00 0.00 0.00 54 1008.3
20260504021322 15 0 0.0 0.0 0.00 0.00 0.00 53 1008.2
20260504020822 15 0 0.0 0.0 0.00 0.00 0.00 53 1008.2
20260504020322 15 0 0.0 0.0 0.00 0.00 0.00 52 1008.2
20260504015821 15 0 0.0 0.0 0.00 0.00 0.00 53 1008.2
20260504015321 15 0 0.0 0.0 0.00 0.00 0.00 52 1008.2
20260504014821 15 0 0.0 0.0 0.00 0.00 0.00 53 1008.2
20260504014321 15 0 0.0 0.0 0.00 0.00 0.00 53 1008.2
20260504013820 16 0 0.0 0.0 0.00 0.00 0.00 52 1008.2
20260504013320 16 0 0.0 0.0 0.00 0.00 0.00 51 1008.1
20260504012820 16 0 0.0 0.0 0.00 0.00 0.00 50 1008.1
20260504012320 17 0 0.0 0.0 0.00 0.00 0.00 49 1008.1
20260504011819 17 0 0.0 0.0 0.00 0.00 0.00 48 1008.0
20260504011318 17 0 0.0 0.0 0.00 0.00 0.00 48 1008.0
20260504010318 17 0 0.0 0.0 0.00 0.00 0.00 46 1008.0
20260504005818 18 0 0.0 0.0 0.00 0.00 0.00 45 1007.9
20260504005317 18 0 0.0 0.0 0.00 0.00 0.00 45 1007.9
20260504004817 18 0 0.0 0.0 0.00 0.00 0.00 44 1008.0
20260504004317 18 0 0.0 0.0 0.00 0.00 0.00 43 1008.0
20260504003816 18 0 0.0 0.0 0.00 0.00 0.00 43 1008.0
20260504003316 19 0 0.0 0.0 0.00 0.00 0.00 42 1008.0
20260504002816 19 0 0.0 0.0 0.00 0.00 0.00 42 1008.0
20260504001815 20 0 0.0 0.0 0.00 0.00 0.00 41 1007.9
20260504001315 20 0 0.0 0.0 0.00 0.00 0.00 40 1007.9
20260504000815 20 0 0.0 0.0 0.00 0.00 0.00 40 1008.0
20260504000314 20 0 0.0 0.0 0.00 0.00 0.00 39 1008.0
20260503235814 20 0 0.0 0.0 0.00 0.00 0.00 39 1008.1
20260503234814 20 0 0.0 0.0 0.00 0.00 0.00 38 1008.0
20260503190257 21 0 0.0 0.0 0.00 0.00 0.00 29 1010.3
20260503185757 21 0 0.0 0.0 0.00 0.00 0.00 30 1010.3
20260503184256 21 0 0.0 0.0 0.00 0.00 0.00 30 1010.6
20260503183256 21 0 0.0 0.0 0.00 0.00 0.00 31 1010.8
20260503182755 21 0 0.0 0.0 0.00 0.00 0.00 33 1010.9
20260503182255 20 0 0.0 0.0 0.00 0.00 0.00 32 1011.0
20260503181755 20 0 0.0 0.0 0.00 0.00 0.00 31 1011.2
20260503175754 19 0 0.0 0.0 0.00 0.00 0.00 34 1011.6
20260503175253 19 0 0.0 0.0 0.00 0.00 0.00 35 1011.7
20260503173752 18 0 0.0 0.0 0.00 0.00 0.00 38 1012.2
20260503173252 18 0 0.0 0.0 0.00 0.00 0.00 39 1012.2
20260503172752 17 0 0.0 0.0 0.00 0.00 0.00 38 1012.4
20260503172252 17 0 0.0 0.0 0.00 0.00 0.00 40 1012.8
20260503171751 17 0 0.0 0.0 0.00 0.00 0.00 41 1013.3
20260503171251 17 0 0.0 0.0 0.00 0.00 0.00 43 1013.4
20260503170751 16 0 0.0 0.0 0.00 0.00 0.00 41 1013.5
20260503170251 16 0 0.0 0.0 0.00 0.00 0.00 43 1013.8
20260503150744 14 0 0.0 0.0 0.00 0.00 0.00 50 1015.7
20260503150244 13 0 0.0 0.0 0.00 0.00 0.00 52 1015.7
20260503140240 11 0 0.0 0.0 0.00 0.00 0.00 56 1016.4
20260503131237 10 0 0.0 0.0 0.00 0.00 0.00 61 1017.2
20260503130237 9 0 0.0 0.0 0.00 0.00 0.00 61 1017.3
20260503110730 6 0 0.0 0.0 0.00 0.00 0.00 68 1016.8
20260503110230 6 0 0.0 0.0 0.00 0.00 0.00 68 1016.8
20260503100226 6 0 0.0 0.0 0.00 0.00 0.00 65 1017.0